Location: Paddlesworth
(51.1000°N, 1.1333°E)
Time: 23:16:10
(UTC+00:00)

USA 305 - Pass Details

Date: 11 May 2021
Orbit: 567 x 573 km, 54.0° (Epoch: 07 May)

Event Time Altitude Azimuth Distance (km) Brightness Sun altitude
Rises 22:00:18 0° 292° (WNW) 2,775 7.2 -16.6°
Reaches altitude 10° 22:02:44 10° 282° (WNW) 1,876 6.1 -16.8°
Maximum altitude 22:06:29 31° 220° (SW) 1,023 3.9 -17.0°
Enters shadow 22:07:27 27° 195° (SSW) 1,099 3.9 -17.1°
